Погода в Ашхабаде

Погода в Ашхабаде : погода сейчас, прогноз погоды и архив. Всё, что Вы хотите узнать о погоде в Ашхабаде!

Поиск расширенной информации на нашем сайте:

Другие новости

Новости СМИ2

Главная страница сайта

Новости сайта

03.07.2017

Напоминаем, что на нашем специализированном сайте Метеоцентр.Азия вы можете получить высокодетализированные автоматические прогнозы погоды по пунктам России, СНГ и мира в авиационном формате (включающие направление и скорость ветра, видимость, явления погоды, количество и форму облачности, нижнюю и верхнюю границу облачности).

Рекомендуем: вред курения

Погода в Ашхабаде - сегодня

Время (UTC), дата Ветер
(°,м/с) 
Видим.   Явления Облачность Т
(°С)
Тd
(°С)
f(%) Тe
(°С)
Pmin
(гПа)
dP
(гПа)
Po
(мм)
O2
(г/м3)
Тmin Tmax R s Состояние
почвы
21 23.07.17 230 (ЮЗ) 10 км    ясно 
+27.6 +7.3 28 +28  1004.7  -0.4  736  268           
00 24.07.17 240 (ЮЗ) 10 км    ясно 
+26 +6.2 28 +26  1005.2  0.3  736  270           
03 24.07.17 270 (З) 10 км    ясно 
+28.7 +7.4 26 +29  1005.4  0.5  737  267           
06 24.07.17 300 (СЗ) 10 км    ясно 
+36.4 +6.7 16 +36  1005.1  0.3  737  261  +25.4         
09 24.07.17 020 (С) 10 км    4/4 1500 м 
[Cu hum]
+40 +6.4 13 +40  1003.8  -1  736  258           
12 24.07.17 060 (СВ) 10 км    6/5 1500 м средняя 
[Sc diur, vesp|Ac trans]
+40.8 +0.9 8 +41  1002.7  -1.1  735  258           
15 24.07.17 050 (СВ) 10 км    8/5 1500 м средняя 
[Sc|Ac trans]
+40 +4.6 11 +40  1002.1  -0.6  735  258    +42.3       
18 24.07.17 240 (ЮЗ) 10 км    6/3 1500 м средняя 
[Sc|Ac trans]
+34 +9.9 23 +35  1002.9  0.3  735  262    +42.3       
21 24.07.17 240 (ЮЗ) 10 км    8/8 1500 м средняя 
[Ac trans]
+31.8 +12.2 30 +36  1003.1  0.1  735  263           
00 25.07.17 300 (СЗ) 10 км    4/4 1500 м средняя 
[Ac trans]
+31.8 +12.9 32 +38  1002.5  -0.5  735  263           
03 25.07.17 320 (СЗ) 10 км    5/0 средняя 
[Ac trans]
+30.8 +17.1 44 +44  1004.1  1.5  736  263           
06 25.07.17 300 (СЗ) 10 км    ясно 
+35.3 +15.2 30 +45  1003.2  -0.6  735  259  +29.8         
09 25.07.17 310 (СЗ) 10 км    3/3 1500 м 
[Cu hum]
+38.9 +10.7 18 +41  1002.7  -0.3  735  257           
12 25.07.17 270 (З) 10 км    8/5 1500 м средняя 
[Sc diur, vesp|Ac trans]
+41.2 +7.7 13 +41  1001  -1.5  734  256           
15 25.07.17 270 (З) 10 км    5/4 1500 м средняя 
[Sc|Ac trans]
+39 +9.8 17 +40  1000.4  -0.7  733  257    +41.8       
18 25.07.17 350 (С) 10 км    5/4 1500 м средняя 
[Sc|Ac trans]
+36.1 +8.6 19 +36  1000.7  733  260    +41.8       
21 25.07.17 260 (З) 10 км    4/3 1500 м средняя 
[Sc|Ac trans]
+34 +11 25 +37  1000.6  -0.1  733  261           
00 26.07.17 290 (З) 10 км    8/6 1500 м средняя 
[Sc|Ac trans]
+32.5 +11.9 28 +37  1000.9  0.2  734  262           
03 26.07.17 290 (З) 10 км    6/5 1500 м средняя 
[Sc|Ac trans]
+32 +17.3 42 +46  1002.1  1.1  734  261           
06 26.07.17 310 (СЗ) 10 км    8/5 1500 м средняя 
[Sc|Ac trans]
+35 +16.8 34 +48  1002.6  0.7  735  259  +30.9         
09 26.07.17 320 (СЗ) 10 км    9/5 1500 м средняя 
[Sc|Ac trans]
+39.2 +14.1 23 +47  1001.3  -1  734  256           
12 26.07.17 270 (З) 10 км    6/5 1500 м средняя 
[Sc|Ac trans]
+41.4 +9.4 15 +42  999.7  -1.4  733  255           
15 26.07.17 270 (З) 10  10 км  пыльная буря на расстоянии  8/5 1500 м кучево-дожд., средняя 
[Cb cap|Ac trans]
+36.2 +10.5 21 +36  999.9  -0.2             
18 26.07.17 300 (СЗ) 18  10 км    6/4 1500 м кучево-дожд., средняя 
[Cb cap|Ac trans]
+34.5 +11.5 25 +38  1001.9  1.8  734  261    +41.7       
21 26.07.17 270 (З) 10 км    9/6 1500 м кучево-дожд., средняя 
[Cb cap|Ac trans]
+33.8 +13.1 29 +40  1002.8  0.9  735  261           
Время (UTC), дата Ветер
(°,м/с) 
Видим.   Явления Облачность Т
(°С)
Тd
(°С)
f(%) Тe
(°С)
Pmin
(гПа)
dP
(гПа)
Po
(мм)
O2
(г/м3)
Тmin Tmax R s Состояние
почвы

Для получения пояснительной информации подведите курсор к названию столбца.

ПОГОДА в Ашхабаде - архив

Всё, что Вы хотите узнать о погоде в Ашхабаде - удобно и подробно!

Выберите нужную дату (начиная с 1 января 2015* года) и нажмите кнопку "Найти".
Будут отображены архивные сводки погоды по пункту Ашхабад, начиная с указанной даты.


Отображать данные в формате CSV (для использования в таблицах Excel)


Внимание! Наш архив погоды предназначен исключительно для личного некоммерческого использования в познавательных целях. Если Вам необходимы официальные справки о состоянии погоды (для производственных, юридических, коммерческих и т.п. целей), обращайтесь в органы Росгидромета.

*Примечание: данная дата относится к архиву по метеостанциям СССР (Россия, СНГ, Балтия).
Архив по метеостанциям Зарубежной Европы и Азии (кроме Китая) хранится 10 дней, по другим регионам земного шара (Китай, Африка, Америка, Австралия, Океания) - 1 день.

Ашхабад - район местоположения метеостанции


Название, широта, долгота, высота метеостанции:
Ашхабад (город) 38°ш. 58.3°д. 208 м над ур. моря [Туркменистан]

Дополнительная информация

В oтличие oт бoльшинства пoгoдных сайтoв мы публикуем пoдрoбную метеoинфoрмацию в детальнoм прoфессиoнальнoм фoрмате.

Характеристики температуры и влажнoсти вoздуха измеряются на высoте 2 м в тени вдали oт зданий и деревьев.
Скoрoсть ветра измеряется на высoте 10 м (на урoвне рoста челoвека скoрoсть ветра ниже в 1.5-2 раза). Если метеoстанция нахoдится в гoрoде или в лесу, тo скoрoсть ветра занижена на 2-4 м/с пo сравнению с oткрытым местoм. Скoрoсть ветра над акватoриями крупных рек и oзёр, а также на вершинах хoлмoв на 2-5 м/с выше, чем в oбычных услoвиях.
Атмoсфернoе давление в разных тoчках местнoсти мoжет значительнo oтличаться oт давления на метеoстанции, в зависимoсти oт услoвий рельефа (при пoдъёме на 10 м давление пoнижается примернo на 1 мм рт.ст.).